Location: Gro�sch�nbrunn
(49.5760°N, 11.8868°E)
Time: 08:50:13
(UTC+00:00)

N. Korean satellite - Pass Details

Date: 26 November 2020
Orbit: 453 x 502 km, 97.2° (Epoch: 16 January)

Event Time Altitude Azimuth Distance (km) Brightness Sun altitude
Rises 04:46:12 0° 14° (NNE) 2,539 10.2 -18.0°
Reaches altitude 10° 04:48:16 10° 15° (NNE) 1,664 9.3 -17.7°
Maximum altitude 04:51:50 78° 102° (ESE) 503 6.7 -17.1°
Drops below altitude 10° 04:55:27 10° 189° (S) 1,677 9.3 -16.5°
Sets 04:57:32 0° 191° (S) 2,561 10.3 -16.2°
